This demonstration page uses our WeatherBlox Daily Observations layout. Learn more.

36.19886, -115.1175

Hourly Observations for June 28, 2018

Temp ( °F °C ) Dew Point ( °F °C ) Humidity (%) Winds ( mph kmh ) Pressure ( in mb ) Visibility ( mi km ) Precip ( " mm )
12:53 am 00:53 Clear 92 33.3 24 -4.4 8 8 SW 13 20 29.71 1006 10 16.09344 0 0
1:53 am 01:53 Clear 89 31.7 25 -3.9 10 10 SSW 12 19 29.68 1005 10 16.09344 0 0
2:53 am 02:53 Clear 89 31.7 23 -5 9 9 SW 16 26 29.68 1005 10 16.09344 0 0
3:53 am 03:53 Clear 86 30 26 -3.3 11 11 S 14 22 29.68 1005 10 16.09344 0 0
4:53 am 04:53 Clear 84 28.9 27 -2.8 12 12 S 10 17 29.68 1005 10 16.09344 0 0
5:53 am 05:53 Sunny 83 28.3 29 -1.7 14 14 S 9 15 29.71 1006 10 16.09344 0 0
6:53 am 06:53 Sunny 85 29.4 27 -2.8 12 12 SSW 10 17 29.71 1006 10 16.09344 0 0
7:53 am 07:53 Sunny 89 31.7 20 -6.7 8 8 S 14 22 29.71 1006 10 16.09344 0 0
8:53 am 08:53 Sunny 93 33.9 16 -8.9 6 6 S 17 28 29.71 1006 10 16.09344 0 0
9:53 am 09:53 Sunny 94 34.4 17 -8.3 6 6 S 22 35 29.71 1006 10 16.09344 0 0
10:53 am 10:53 Sunny 97 36.1 13 -10.6 4 4 S 15 24 29.71 1006 10 16.09344 0 0
11:53 am 11:53 Sunny 100 37.8 17 -8.3 5 5 SSW 23 37 29.68 1005 10 16.09344 0 0
12:53 pm 12:53 Sunny 102 38.9 18 -7.8 5 5 SW 24 39 29.68 1005 10 16.09344 0 0
1:53 pm 13:53 Sunny 103 39.4 17 -8.3 4 4 SW 21 33 29.65 1004 10 16.09344 0 0
2:53 pm 14:53 Sunny 104 40 13 -10.6 4 4 SW 17 28 29.65 1004 10 16.09344 0 0
3:53 pm 15:53 Sunny 104 40 9 -12.8 3 3 SW 22 35 29.62 1003 10 16.09344 0 0
4:53 pm 16:53 Sunny 104 40 5 -15 2 2 W 21 33 29.62 1003 10 16.09344 0 0
5:53 pm 17:53 Sunny 102 38.9 13 -10.6 4 4 SW 18 30 29.59 1002 10 16.09344 0 0
6:53 pm 18:53 Sunny 101 38.3 11 -11.7 4 4 WSW 18 30 29.59 1002 10 16.09344 0 0
7:53 pm 19:53 Sunny 98 36.7 16 -8.9 5 5 W 13 20 29.59 1002 10 16.09344 0 0
8:53 pm 20:53 Clear 96 35.6 18 -7.8 6 6 WSW 14 22 29.62 1003 10 16.09344 0 0
9:53 pm 21:53 Clear 94 34.4 20 -6.7 7 7 WSW 10 17 29.65 1004 10 16.09344 0 0
10:53 pm 22:53 Clear 91 32.8 21 -6.1 8 8 SW 9 15 29.65 1004 10 16.09344 0 0
11:53 pm 23:53 Clear 89 31.7 23 -5 9 9 SSW 7 11 29.65 1004 10 16.09344 0 0

Powered by AerisWeather